DLH06J EDDF-LOWS

Flight info

Callsign DLH06J
Flight time 0h 39m
Altitude 29000
Route CINDY8S/18 CINDY Z74 HAREM DCT ASLEP DCT TAKUT DCT DINKU L603 OLETU T702 BADIT BADIT2R
Aircraft A319/M-SDE3FGHIRWY/LB1

Departure

Time 2026-05-04 10:45
Airport Frankfurt Main Airport (EDDF)

Arrival

Time 2026-05-04 11:24
Airport Salzburg Airport (LOWS)
Time Latitude Longitude Altitude Speed Heading
2026-05-04 09:54 50.03580 8.53662 362 ft 0 kts 159°
2026-05-04 09:56 50.03617 8.53792 368 ft 0 kts 159°
2026-05-04 10:40 50.03603 8.53800 368 ft 4 kts 159°
2026-05-04 10:41 50.03567 8.53821 365 ft 8 kts 162°
2026-05-04 10:41 50.03525 8.53763 363 ft 10 kts 249°
2026-05-04 10:41 50.03501 8.53659 367 ft 11 kts 250°
2026-05-04 10:41 50.03474 8.53546 370 ft 12 kts 249°
2026-05-04 10:42 50.03444 8.53417 365 ft 14 kts 250°
2026-05-04 10:42 50.03409 8.53272 364 ft 15 kts 250°
2026-05-04 10:42 50.03374 8.53125 368 ft 14 kts 249°
2026-05-04 10:42 50.03338 8.52978 367 ft 15 kts 249°
2026-05-04 10:43 50.03303 8.52830 368 ft 15 kts 250°
2026-05-04 10:44 50.03215 8.52595 366 ft 4 kts 179°
2026-05-04 10:45 50.02988 8.52597 367 ft 71 kts 180°
2026-05-04 10:45 50.02257 8.52605 369 ft 136 kts 179°
2026-05-04 10:45 50.01158 8.52607 644 ft 161 kts 180°
2026-05-04 10:45 50.00018 8.52609 1291 ft 162 kts 180°
2026-05-04 10:46 49.98874 8.52627 1897 ft 172 kts 179°
2026-05-04 10:46 49.97623 8.52726 2267 ft 194 kts 169°
2026-05-04 10:46 49.96340 8.53784 2566 ft 223 kts 135°
2026-05-04 10:46 49.95449 8.55953 3205 ft 241 kts 120°
2026-05-04 10:47 49.94624 8.58267 3669 ft 265 kts 120°
2026-05-04 10:47 49.94028 8.61105 4170 ft 294 kts 98°
2026-05-04 10:47 49.93869 8.64397 4715 ft 314 kts 95°
2026-05-04 10:47 49.93485 8.67841 5602 ft 320 kts 111°
2026-05-04 10:49 49.84016 8.87691 11605 ft 350 kts 121°
2026-05-04 10:49 49.82818 8.90995 12383 ft 354 kts 122°
2026-05-04 10:50 49.81600 8.94345 13134 ft 359 kts 122°
2026-05-04 10:51 49.73826 9.19801 17762 ft 387 kts 125°
2026-05-04 10:52 49.72202 9.23153 18406 ft 387 kts 135°
2026-05-04 10:52 49.70410 9.26285 18990 ft 391 kts 135°
2026-05-04 10:52 49.68611 9.29453 19580 ft 394 kts 135°
2026-05-04 10:54 49.58791 9.55700 23357 ft 428 kts 111°
2026-05-04 10:54 49.57855 9.60062 23800 ft 431 kts 111°
2026-05-04 10:56 49.49379 9.89817 26636 ft 438 kts 133°
2026-05-04 10:56 49.47442 9.93473 27002 ft 441 kts 133°
2026-05-04 10:56 49.45508 9.97134 27394 ft 444 kts 133°
2026-05-04 10:57 49.43549 10.00844 27782 ft 446 kts 133°
2026-05-04 10:57 49.41582 10.04564 28172 ft 448 kts 133°
2026-05-04 10:57 49.39610 10.08284 28538 ft 450 kts 133°
2026-05-04 10:57 49.37617 10.12044 28898 ft 453 kts 133°
2026-05-04 10:58 49.35630 10.15791 29021 ft 451 kts 133°
2026-05-04 10:58 49.31675 10.23238 29035 ft 445 kts 133°
2026-05-04 10:59 49.27721 10.30639 29032 ft 446 kts 133°
2026-05-04 10:59 49.25761 10.34285 29164 ft 452 kts 133°
2026-05-04 10:59 49.23735 10.37999 29524 ft 453 kts 136°
2026-05-04 10:59 49.21522 10.41396 29995 ft 450 kts 140°
2026-05-04 11:00 49.19282 10.44727 30455 ft 449 kts 140°
2026-05-04 11:01 49.04374 10.66862 31062 ft 449 kts 140°
2026-05-04 11:02 49.02122 10.70185 31047 ft 450 kts 140°
2026-05-04 11:05 48.68147 11.19708 30765 ft 453 kts 140°
2026-05-04 11:06 48.65876 11.22970 30280 ft 450 kts 140°
2026-05-04 11:06 48.63728 11.26453 29528 ft 451 kts 131°
2026-05-04 11:06 48.61836 11.30267 28852 ft 448 kts 130°
2026-05-04 11:06 48.59936 11.34122 28152 ft 444 kts 130°
2026-05-04 11:08 48.47249 11.59758 23758 ft 423 kts 122°
2026-05-04 11:10 48.40086 11.88026 20047 ft 399 kts 112°
2026-05-04 11:12 48.33500 12.14976 16719 ft 377 kts 112°
2026-05-04 11:12 48.32595 12.18648 16228 ft 374 kts 112°
2026-05-04 11:12 48.31674 12.22381 15731 ft 372 kts 112°
2026-05-04 11:12 48.31032 12.24984 15377 ft 370 kts 113°
2026-05-04 11:13 48.30163 12.28504 14897 ft 368 kts 113°
2026-05-04 11:13 48.29266 12.32139 14402 ft 367 kts 113°
2026-05-04 11:13 48.28377 12.35733 13909 ft 365 kts 113°
2026-05-04 11:13 48.27499 12.39272 13520 ft 359 kts 113°
2026-05-04 11:14 48.26638 12.42740 13386 ft 346 kts 113°
2026-05-04 11:14 48.25812 12.46062 13208 ft 335 kts 113°
2026-05-04 11:14 48.24997 12.49313 12882 ft 331 kts 113°
2026-05-04 11:16 48.19706 12.70451 10401 ft 292 kts 113°
2026-05-04 11:16 48.18979 12.73320 9978 ft 290 kts 113°
2026-05-04 11:16 48.18268 12.76132 9508 ft 287 kts 112°
2026-05-04 11:17 48.17554 12.78922 9059 ft 284 kts 115°
2026-05-04 11:17 48.16518 12.81401 8686 ft 280 kts 133°
2026-05-04 11:19 48.04213 12.87537 6398 ft 248 kts 169°
2026-05-04 11:19 48.02542 12.87997 6212 ft 237 kts 169°
2026-05-04 11:19 48.00925 12.88437 5931 ft 234 kts 169°
2026-05-04 11:19 47.99330 12.88861 5676 ft 232 kts 169°
2026-05-04 11:20 47.97739 12.89270 5298 ft 231 kts 169°
2026-05-04 11:20 47.96163 12.89798 4825 ft 235 kts 160°
2026-05-04 11:20 47.94638 12.90673 4450 ft 233 kts 156°
2026-05-04 11:20 47.93160 12.91618 4138 ft 230 kts 155°
2026-05-04 11:22 47.84344 12.97219 2328 ft 149 kts 153°
2026-05-04 11:22 47.83402 12.97820 2124 ft 143 kts 154°
2026-05-04 11:23 47.82489 12.98412 1924 ft 142 kts 154°
2026-05-04 11:23 47.81572 12.98973 1731 ft 141 kts 156°
2026-05-04 11:24 47.78542 13.00767 1422 ft 15 kts 248°
2026-05-04 11:25 47.78536 13.00643 1421 ft 11 kts 301°
2026-05-04 11:25 47.78598 13.00590 1422 ft 11 kts 338°
2026-05-04 11:25 47.78671 13.00545 1421 ft 12 kts 337°
2026-05-04 11:26 47.78813 13.00455 1422 ft 14 kts 336°
2026-05-04 11:27 47.79088 13.00004 1422 ft 7 kts 282°
2026-05-04 11:28 47.79093 12.99968 1422 ft 2 kts 282°
2026-05-04 11:28 47.79093 12.99964 1422 ft 1 kts 282°
2026-05-04 11:28 47.79094 12.99960 1422 ft 0 kts 282°